Date String (YYYY-MM-DD hh:mm:ss) UTC,Instrument flags,absolute air pressure of the measurement (hPa),sample flow rate (lpm),inlet stack bypass flow (lpm),air temperature of the measurement (°C),ambient temperature measured by the external sensor (°C),aerosol sample conditioner tube jacket temperature (°C),OPC LED temperature (°C),internal box temperature (°C),relative humidity of the measurement (%),span deviation,mass concentration of particles derived from Lorenz-Mie calculation of OPC scattering (μg/m³),mass concentration of particles derived from Lorenz-Mie calculation of OPC scattering (μg/m³),mass concentration of particles derived from Lorenz-Mie calculation of OPC scattering (μg/m³)
DateTimeUTC,F1_M11,P_M11,Q1_M11,Q2_M11,T1_M11,T2_M11,T3_M11,T4_M11,T5_M11,U1_M11,ZSPAN_M11,X0_M11,X2_M11,X1_M11
2023-11-23 11:00:00,SystemResetWarning,0830.0,4.99,000.00,024.4,023.4,000.0,032.7,025.6,10.5,0000.0,0010.87,0002.32,0001.38
2023-11-23 11:01:00,SystemResetWarning,0830.0,5.00,000.00,024.4,023.4,000.0,032.7,025.6,10.5,0000.0,0010.82,0002.38,0001.39
2023-11-23 11:02:00,SystemResetWarning,0830.1,4.99,000.00,024.4,023.4,000.0,032.7,025.6,10.5,0000.0,0010.51,0002.39,0001.39
2023-11-23 11:03:00,SystemResetWarning,0830.0,5.00,000.00,024.4,023.4,000.0,032.7,025.5,10.5,0000.0,0011.00,0002.36,0001.40
2023-11-23 11:04:00,SystemResetWarning,0830.0,5.00,000.00,024.4,023.4,000.0,032.7,025.5,10.5,0000.0,0009.94,0002.35,0001.39
2023-11-23 11:05:00,SystemResetWarning,0830.1,5.00,000.00,024.3,023.4,000.0,032.7,025.5,10.5,0000.0,0009.17,0002.39,0001.39
2023-11-23 11:06:00,SystemResetWarning,0830.0,5.00,000.00,024.3,023.4,000.0,032.7,025.5,10.5,0000.0,0009.26,0002.51,0001.41
2023-11-23 11:07:00,SystemResetWarning,0830.1,5.00,000.00,024.3,023.4,000.0,032.7,025.5,10.5,0000.0,0008.26,0002.53,0001.43
2023-11-23 11:08:00,SystemResetWarning,0830.0,5.00,000.00,024.3,023.3,000.0,032.7,025.5,10.5,0000.0,0008.27,0002.50,0001.43
2023-11-23 11:09:00,SystemResetWarning,0830.1,5.00,000.00,024.3,023.3,000.0,032.7,025.5,10.5,0000.0,0008.59,0002.60,0001.44
2023-11-23 11:10:00,SystemResetWarning,0830.0,5.00,000.00,024.3,023.3,000.0,032.7,025.5,10.5,0000.0,0009.24,0002.66,0001.44
2023-11-23 11:11:00,SystemResetWarning,0830.1,5.00,000.00,024.3,023.3,000.0,032.7,025.5,10.5,0000.0,0009.26,0002.67,0001.45
2023-11-23 11:12:00,SystemResetWarning,0830.1,4.99,000.00,024.3,023.3,000.0,032.7,025.5,10.5,0000.0,0009.36,0002.72,0001.46
2023-11-23 11:13:00,SystemResetWarning,0830.1,4.99,000.00,024.3,023.3,000.0,032.7,025.5,10.5,0000.0,0009.34,0002.77,0001.46
2023-11-23 11:14:00,SystemResetWarning,0830.2,5.00,000.00,024.3,023.3,000.0,032.6,025.5,10.5,0000.0,0009.03,0002.86,0001.46
2023-11-23 11:15:00,SystemResetWarning,0830.2,5.01,000.00,024.3,023.3,000.0,032.6,025.5,10.5,0000.0,0008.79,0002.87,0001.47
2023-11-23 11:16:00,SystemResetWarning,0830.2,5.01,000.00,024.3,023.3,000.0,032.6,025.5,10.5,0000.0,0008.82,0002.85,0001.48
2023-11-23 11:17:00,SystemResetWarning,0830.2,5.00,000.00,024.3,023.3,000.0,032.6,025.5,10.5,0000.0,0008.80,0002.80,0001.47
2023-11-23 11:18:00,SystemResetWarning,0830.2,4.99,000.00,024.3,023.3,000.0,032.6,025.5,10.5,0000.0,0009.13,0002.78,0001.47
2023-11-23 11:19:00,SystemResetWarning,0830.2,5.00,000.00,024.3,023.3,000.0,032.6,025.5,10.5,0000.0,0008.85,0002.80,0001.47
2023-11-23 11:20:00,SystemResetWarning,0830.2,5.00,000.00,024.3,023.3,000.0,032.6,025.5,10.5,0000.0,0008.63,0002.70,0001.48
2023-11-23 11:21:00,SystemResetWarning,0830.2,5.00,000.00,024.3,023.3,000.0,032.6,025.5,10.5,0000.0,0008.40,0002.63,0001.48
2023-11-23 11:22:00,SystemResetWarning,0830.2,4.99,000.00,024.3,023.3,000.0,032.6,025.5,10.5,0000.0,0008.49,0002.64,0001.48
2023-11-23 11:23:00,SystemResetWarning,0830.2,5.00,000.00,024.3,023.3,000.0,032.6,025.5,10.5,0000.0,0008.51,0002.62,0001.47
2023-11-23 11:24:00,SystemResetWarning,0830.2,5.00,000.00,024.3,023.3,000.0,032.6,025.5,10.5,0000.0,0008.42,0002.61,0001.46
2023-11-23 11:25:00,SystemResetWarning,0830.2,5.00,000.00,024.3,023.3,000.0,032.6,025.5,10.5,0000.0,0008.53,0002.57,0001.45
2023-11-23 11:26:00,SystemResetWarning,0830.2,5.00,000.00,024.3,023.3,000.0,032.6,025.5,10.5,0000.0,0008.93,0002.63,0001.43
2023-11-23 11:27:00,SystemResetWarning,0830.2,5.00,000.00,024.3,023.3,000.0,032.6,025.5,10.5,0000.0,0009.14,0002.69,0001.43
2023-11-23 11:28:00,SystemResetWarning,0830.2,5.01,000.00,024.3,023.3,000.0,032.6,025.5,10.5,0000.0,0009.17,0002.71,0001.44
2023-11-23 11:29:00,SystemResetWarning,0830.2,5.00,000.00,024.3,023.3,000.0,032.6,025.5,10.5,0000.0,0008.63,0002.72,0001.44
2023-11-23 11:30:00,SystemResetWarning,0830.3,5.00,000.00,024.3,023.3,000.0,032.6,025.5,10.5,0000.0,0008.82,0002.65,0001.43
2023-11-23 11:31:00,SystemResetWarning,0830.3,5.01,000.00,024.3,023.3,000.0,032.6,025.5,10.5,0000.0,0008.76,0002.70,0001.44
2023-11-23 11:32:00,SystemResetWarning,0830.2,5.00,000.00,024.3,023.3,000.0,032.6,025.5,10.5,0000.0,0007.98,0002.70,0001.44
2023-11-23 11:33:00,SystemResetWarning,0830.2,4.99,000.00,024.3,023.3,000.0,032.6,025.5,10.5,0000.0,0007.69,0002.68,0001.44
2023-11-23 11:34:00,SystemResetWarning,0830.3,5.00,000.00,024.3,023.3,000.0,032.6,025.5,10.5,0000.0,0008.33,0002.75,0001.45
2023-11-23 11:35:00,SystemResetWarning,0830.3,5.01,000.00,024.3,023.3,000.0,032.6,025.5,10.5,0000.0,0008.71,0002.78,0001.48
2023-11-23 11:36:00,SystemResetWarning,0830.3,5.00,000.00,024.3,023.3,000.0,032.6,025.5,10.5,0000.0,0008.66,0002.77,0001.50
2023-11-23 11:37:00,SystemResetWarning,0830.3,5.00,000.00,024.3,023.3,000.0,032.6,025.5,10.5,0000.0,0008.45,0002.75,0001.54
2023-11-23 11:38:00,SystemResetWarning,0830.3,5.01,000.00,024.3,023.3,000.0,032.6,025.5,10.6,0000.0,0008.28,0002.69,0001.55
2023-11-23 11:39:00,SystemResetWarning,0830.3,5.00,000.00,024.3,023.3,000.0,032.6,025.5,10.5,0000.0,0008.11,0002.71,0001.56
2023-11-23 11:40:00,SystemResetWarning,0830.3,5.00,000.00,024.3,023.3,000.0,032.6,025.5,10.5,0000.0,0008.04,0002.71,0001.57
2023-11-23 11:41:00,SystemResetWarning,0830.3,4.99,000.00,024.2,023.3,000.0,032.6,025.5,10.6,0000.0,0008.19,0002.74,0001.58
2023-11-23 11:42:00,SystemResetWarning,0830.3,5.00,000.00,024.3,023.3,000.0,032.6,025.5,10.6,0000.0,0008.33,0002.73,0001.58
2023-11-23 11:43:00,SystemResetWarning,0830.4,5.01,000.00,024.2,023.3,000.0,032.6,025.5,10.6,0000.0,0008.52,0002.86,0001.60
2023-11-23 11:44:00,SystemResetWarning,0830.4,5.00,000.00,024.2,023.3,000.0,032.6,025.5,10.6,0000.0,0008.52,0002.85,0001.61
2023-11-23 11:45:00,SystemResetWarning,0830.4,5.01,000.00,024.2,023.3,000.0,032.6,025.5,10.5,0000.0,0007.94,0002.85,0001.62
2023-11-23 11:46:00,SystemResetWarning,0830.5,5.00,000.00,024.2,023.3,000.0,032.6,025.5,10.6,0000.0,0007.94,0002.85,0001.63
2023-11-23 11:47:00,SystemResetWarning,0830.5,5.00,000.00,024.2,023.3,000.0,032.6,025.5,10.6,0000.0,0007.87,0002.90,0001.63
2023-11-23 11:48:00,SystemResetWarning,0830.4,5.00,000.00,024.2,023.3,000.0,032.6,025.5,10.6,0000.0,0007.75,0002.90,0001.62
2023-11-23 11:49:00,SystemResetWarning,0830.4,5.00,000.00,024.2,023.3,000.0,032.6,025.5,10.5,0000.0,0007.68,0002.98,0001.64
2023-11-23 11:50:00,SystemResetWarning,0830.4,4.99,000.00,024.2,023.3,000.0,032.5,025.5,10.5,0000.0,0007.74,0003.03,0001.64
2023-11-23 11:51:00,SystemResetWarning,0830.5,5.00,000.00,024.2,023.3,000.0,032.5,025.5,10.5,0000.0,0008.13,0003.14,0001.65
2023-11-23 11:52:00,SystemResetWarning,0830.8,5.00,000.00,024.2,023.3,000.0,032.5,025.5,10.5,0000.0,0007.97,0003.18,0001.66
2023-11-23 11:53:00,SystemResetWarning,0830.5,5.00,000.00,024.2,023.3,000.0,032.5,025.5,10.5,0000.0,0007.95,0003.19,0001.66
2023-11-23 11:54:00,SystemResetWarning,0830.6,5.00,000.00,024.2,023.3,000.0,032.5,025.5,10.5,0000.0,0008.18,0003.11,0001.66
2023-11-23 11:55:00,SystemResetWarning,0830.5,5.00,000.00,024.2,023.3,000.0,032.5,025.5,10.6,0000.0,0008.27,0003.18,0001.67
2023-11-23 11:56:00,SystemResetWarning,0830.6,5.00,000.00,024.2,023.3,000.0,032.5,025.5,10.6,0000.0,0008.28,0003.14,0001.67
2023-11-23 11:57:00,SystemResetWarning,0830.6,4.99,000.00,024.2,023.3,000.0,032.5,025.5,10.6,0000.0,0007.76,0003.12,0001.66
2023-11-23 11:58:00,SystemResetWarning,0830.6,5.00,000.00,024.2,023.3,000.0,032.5,025.5,10.7,0000.0,0007.56,0003.10,0001.67
2023-11-23 11:59:00,SystemResetWarning,0830.6,5.01,000.00,024.2,023.3,000.0,032.5,025.4,10.7,0000.0,0007.74,0003.13,0001.69
